Tracking 17147 objects as of 5-July-2015
HD Live streaming from Space Station

COSMOS 252 DEB

Track COSMOS 252 DEB now!
10-day predictions
COSMOS 252 DEB is classified as:


NORAD ID: 3559
Int'l Code: 1968-097M
Perigee: 533.4 km
Apogee: 1,343.8 km
Inclination: 62.3 °
Period: 103.7 minutes
Semi major axis: 7309 km
RCS: 0.1149 m2 (medium)
Launch date: November 1, 1968
Source: Commonwealth of Independent States (former USSR) (CIS)

Note: This is SATELLITE DEBRIS
Your satellite tracking list
Your tracking list is empty





NASA's NSSDC Master Catalog

Two Line Element Set (TLE):
1 03559U 68097M   15185.15965188  .00001854  00000-0  46598-3 0  9998
2 03559 062.2977 175.1319 0554308 336.3154 021.3227 13.89195586284910

Source of the keplerian elements: AFSPC

N2YO: 232